KZR951 UAAA-UACC

Flight info

Callsign KZR951
Flight time 1h 28m
Altitude 38000
Route ETEDA1B ETEDA W333 BANOS
Aircraft A20N/M-SDE2E3FGHIRWXY/LB1

Departure

Time 2026-05-06 18:55
Airport Almaty International Airport (UAAA)

Arrival

Time 2026-05-06 20:23
Airport Nursultan Nazarbayev International Airport (UACC)
Time Latitude Longitude Altitude Speed Heading
2026-05-06 18:42 43.34729 77.01280 2229 ft 0 kts 245°
2026-05-06 18:47 43.34729 77.01281 2231 ft 0 kts 245°
2026-05-06 18:47 43.34733 77.01293 2229 ft 2 kts 245°
2026-05-06 18:47 43.34740 77.01312 2228 ft 2 kts 245°
2026-05-06 18:47 43.34746 77.01331 2228 ft 2 kts 245°
2026-05-06 18:48 43.34752 77.01350 2228 ft 2 kts 243°
2026-05-06 18:48 43.34760 77.01367 2228 ft 2 kts 236°
2026-05-06 18:48 43.34769 77.01384 2228 ft 2 kts 230°
2026-05-06 18:48 43.34779 77.01399 2227 ft 2 kts 225°
2026-05-06 18:49 43.34788 77.01411 2227 ft 0 kts 236°
2026-05-06 18:49 43.34790 77.01417 2227 ft 0 kts 236°
2026-05-06 18:50 43.34790 77.01416 2227 ft 0 kts 236°
2026-05-06 18:51 43.34785 77.01407 2227 ft 2 kts 226°
2026-05-06 18:51 43.34764 77.01394 2228 ft 4 kts 183°
2026-05-06 18:51 43.34723 77.01412 2229 ft 7 kts 157°
2026-05-06 18:51 43.34676 77.01440 2230 ft 7 kts 156°
2026-05-06 18:52 43.34631 77.01463 2232 ft 6 kts 170°
2026-05-06 18:52 43.34592 77.01468 2234 ft 4 kts 171°
2026-05-06 18:52 43.34562 77.01480 2235 ft 4 kts 159°
2026-05-06 18:52 43.34526 77.01502 2236 ft 5 kts 155°
2026-05-06 18:53 43.34489 77.01525 2236 ft 5 kts 155°
2026-05-06 18:53 43.34448 77.01552 2237 ft 8 kts 155°
2026-05-06 18:53 43.34387 77.01590 2238 ft 9 kts 155°
2026-05-06 18:53 43.34322 77.01631 2238 ft 10 kts 155°
2026-05-06 18:54 43.34253 77.01675 2239 ft 10 kts 155°
2026-05-06 18:54 43.34187 77.01722 2241 ft 11 kts 143°
2026-05-06 18:54 43.34182 77.01862 2241 ft 26 kts 58°
2026-05-06 18:54 43.34432 77.02375 2239 ft 102 kts 55°
2026-05-06 18:55 43.34967 77.03440 2273 ft 161 kts 57°
2026-05-06 18:55 43.35615 77.04738 2841 ft 170 kts 57°
2026-05-06 18:55 43.36288 77.06081 3638 ft 172 kts 57°
2026-05-06 18:55 43.37092 77.07243 4364 ft 177 kts 27°
2026-05-06 18:56 43.38345 77.07350 4872 ft 194 kts 344°
2026-05-06 18:56 43.39648 77.06643 5382 ft 211 kts 339°
2026-05-06 18:56 43.41045 77.05846 5884 ft 228 kts 339°
2026-05-06 18:56 43.42589 77.04964 6347 ft 249 kts 339°
2026-05-06 18:57 43.44261 77.04015 6818 ft 270 kts 339°
2026-05-06 18:57 43.46058 77.02996 7436 ft 286 kts 338°
2026-05-06 18:57 43.47905 77.01948 8375 ft 291 kts 338°
2026-05-06 18:57 43.49500 77.01042 9134 ft 293 kts 337°
2026-05-06 18:58 43.51235 77.00056 9925 ft 298 kts 336°
2026-05-06 18:58 43.53154 76.98962 10699 ft 304 kts 336°
2026-05-06 18:58 43.55209 76.97789 11314 ft 320 kts 336°
2026-05-06 18:58 43.57275 76.96611 12092 ft 327 kts 336°
2026-05-06 18:59 43.59369 76.95419 13000 ft 328 kts 336°
2026-05-06 18:59 43.61467 76.94224 13896 ft 330 kts 335°
2026-05-06 18:59 43.63604 76.93002 14787 ft 333 kts 335°
2026-05-06 18:59 43.65734 76.91784 15666 ft 335 kts 335°
2026-05-06 19:00 43.67901 76.90545 16480 ft 338 kts 335°
2026-05-06 19:00 43.70080 76.89297 17285 ft 341 kts 335°
2026-05-06 19:00 43.72279 76.88038 18096 ft 344 kts 335°
2026-05-06 19:00 43.73749 76.87195 18614 ft 346 kts 335°
2026-05-06 19:01 43.76705 76.85498 19598 ft 350 kts 335°
2026-05-06 19:01 43.78974 76.84197 20350 ft 354 kts 335°
2026-05-06 19:01 43.81228 76.82902 21057 ft 357 kts 335°
2026-05-06 19:01 43.83543 76.81571 21781 ft 361 kts 336°
2026-05-06 19:02 43.85868 76.80233 22491 ft 364 kts 336°
2026-05-06 19:02 43.88231 76.78873 23203 ft 367 kts 336°
2026-05-06 19:02 43.90570 76.77525 23890 ft 370 kts 336°
2026-05-06 19:02 43.92976 76.76138 24577 ft 373 kts 336°
2026-05-06 19:03 43.95372 76.74756 25214 ft 376 kts 336°
2026-05-06 19:03 43.97789 76.73360 25819 ft 379 kts 336°
2026-05-06 19:03 44.00234 76.71947 26419 ft 382 kts 336°
2026-05-06 19:03 44.02664 76.70541 27005 ft 384 kts 337°
2026-05-06 19:04 44.05148 76.69104 27576 ft 387 kts 337°
2026-05-06 19:04 44.07642 76.67658 28123 ft 389 kts 337°
2026-05-06 19:04 44.10117 76.66222 28660 ft 390 kts 337°
2026-05-06 19:04 44.12625 76.64768 29174 ft 392 kts 337°
2026-05-06 19:05 44.15166 76.63292 29670 ft 394 kts 337°
2026-05-06 19:05 44.17676 76.61833 30116 ft 396 kts 337°
2026-05-06 19:05 44.20215 76.60357 30527 ft 398 kts 337°
2026-05-06 19:05 44.22789 76.58855 30930 ft 400 kts 338°
2026-05-06 19:06 44.24773 76.57700 31223 ft 401 kts 337°
2026-05-06 19:06 44.27329 76.56209 31570 ft 404 kts 338°
2026-05-06 19:06 44.29927 76.54689 31941 ft 405 kts 338°
2026-05-06 19:06 44.32505 76.53181 32329 ft 406 kts 338°
2026-05-06 19:07 44.35130 76.51643 32819 ft 404 kts 338°
2026-05-06 19:07 44.36838 76.50635 33160 ft 402 kts 338°
2026-05-06 19:07 44.40251 76.48620 33800 ft 399 kts 338°
2026-05-06 19:07 44.42778 76.47127 34233 ft 397 kts 338°
2026-05-06 19:08 44.45346 76.45610 34612 ft 396 kts 338°
2026-05-06 19:08 44.47870 76.44117 34964 ft 395 kts 338°
2026-05-06 19:08 44.50387 76.42628 35296 ft 394 kts 338°
2026-05-06 19:08 44.52912 76.41132 35623 ft 393 kts 338°
2026-05-06 19:09 44.55413 76.39650 35932 ft 393 kts 338°
2026-05-06 19:09 44.57954 76.38142 36299 ft 392 kts 338°
2026-05-06 19:09 44.60436 76.36668 36626 ft 392 kts 338°
2026-05-06 19:09 44.62973 76.35161 36887 ft 394 kts 338°
2026-05-06 19:10 44.65478 76.33669 37170 ft 395 kts 337°
2026-05-06 19:10 44.68003 76.32164 37460 ft 395 kts 337°
2026-05-06 19:10 44.70546 76.30650 37739 ft 396 kts 337°
2026-05-06 19:10 44.73082 76.29137 38001 ft 397 kts 337°
2026-05-06 19:11 44.75614 76.27625 38055 ft 398 kts 337°
2026-05-06 19:11 44.80718 76.24571 38063 ft 399 kts 337°
2026-05-06 19:12 44.85824 76.21510 38062 ft 398 kts 337°
2026-05-06 19:12 44.90896 76.18466 38057 ft 397 kts 337°
2026-05-06 19:13 44.95975 76.15411 38065 ft 395 kts 337°
2026-05-06 19:13 45.01003 76.12377 38066 ft 395 kts 337°
2026-05-06 19:14 45.06038 76.09338 38068 ft 394 kts 337°
2026-05-06 19:14 45.11080 76.06289 38066 ft 395 kts 337°
2026-05-06 19:15 45.16118 76.03234 38055 ft 394 kts 337°
2026-05-06 19:15 45.21180 76.00159 38058 ft 395 kts 337°
2026-05-06 19:16 45.26196 75.97109 38072 ft 394 kts 337°
2026-05-06 19:16 45.31234 75.94037 38063 ft 393 kts 337°
2026-05-06 19:17 45.36223 75.90990 38059 ft 392 kts 337°
2026-05-06 19:17 45.41229 75.87925 38067 ft 392 kts 337°
2026-05-06 19:18 45.46218 75.84864 38056 ft 391 kts 336°
2026-05-06 19:18 45.51225 75.81789 38065 ft 390 kts 336°
2026-05-06 19:19 45.56197 75.78727 38067 ft 391 kts 337°
2026-05-06 19:19 45.61190 75.75650 38070 ft 392 kts 336°
2026-05-06 19:20 45.66181 75.72568 38073 ft 391 kts 336°
2026-05-06 19:20 45.71142 75.69497 38065 ft 390 kts 336°
2026-05-06 19:21 45.76115 75.66406 38074 ft 390 kts 336°
2026-05-06 19:21 45.81091 75.63309 38076 ft 390 kts 336°
2026-05-06 19:22 45.86052 75.60218 38069 ft 389 kts 336°
2026-05-06 19:22 45.91033 75.57109 38081 ft 391 kts 336°
2026-05-06 19:23 45.95978 75.54018 38085 ft 390 kts 336°
2026-05-06 19:23 46.00933 75.50911 38078 ft 390 kts 336°
2026-05-06 19:24 46.05918 75.47784 38070 ft 390 kts 336°
2026-05-06 19:24 46.10869 75.44670 38070 ft 389 kts 336°
2026-05-06 19:25 46.15820 75.41552 38066 ft 389 kts 336°
2026-05-06 19:25 46.20755 75.38438 38071 ft 390 kts 335°
2026-05-06 19:26 46.25741 75.35278 38070 ft 390 kts 335°
2026-05-06 19:26 46.30688 75.32137 38072 ft 391 kts 335°
2026-05-06 19:27 46.35677 75.28965 38067 ft 391 kts 334°
2026-05-06 19:27 46.40625 75.25812 38063 ft 391 kts 335°
2026-05-06 19:28 46.45613 75.22634 38063 ft 391 kts 335°
2026-05-06 19:28 46.50581 75.19460 38066 ft 392 kts 334°
2026-05-06 19:29 46.55533 75.16287 38068 ft 392 kts 334°
2026-05-06 19:29 46.60527 75.13083 38069 ft 392 kts 334°
2026-05-06 19:30 46.65503 75.09885 38063 ft 393 kts 334°
2026-05-06 19:30 46.70501 75.06664 38064 ft 393 kts 334°
2026-05-06 19:31 46.75502 75.03436 38060 ft 393 kts 334°
2026-05-06 19:31 46.82970 74.98605 38069 ft 393 kts 334°
2026-05-06 19:32 46.87968 74.95363 38072 ft 393 kts 334°
2026-05-06 19:32 46.92984 74.92094 38073 ft 393 kts 334°
2026-05-06 19:33 46.97980 74.88838 38072 ft 394 kts 334°
2026-05-06 19:33 47.02979 74.85573 38073 ft 395 kts 333°
2026-05-06 19:34 47.08001 74.82285 38075 ft 396 kts 334°
2026-05-06 19:34 47.13042 74.78982 38080 ft 396 kts 334°
2026-05-06 19:35 47.18121 74.75645 38086 ft 396 kts 333°
2026-05-06 19:35 47.23145 74.72338 38086 ft 396 kts 333°
2026-05-06 19:36 47.28194 74.69006 38092 ft 397 kts 333°
2026-05-06 19:36 47.33216 74.65684 38096 ft 397 kts 333°
2026-05-06 19:37 47.38251 74.62350 38099 ft 396 kts 333°
2026-05-06 19:37 47.42450 74.59566 38104 ft 397 kts 333°
2026-05-06 19:38 47.48331 74.55654 38107 ft 397 kts 333°
2026-05-06 19:38 47.53347 74.52309 38103 ft 397 kts 333°
2026-05-06 19:39 47.58408 74.48923 38103 ft 398 kts 333°
2026-05-06 19:39 47.63424 74.45563 38109 ft 398 kts 333°
2026-05-06 19:40 47.68469 74.42175 38114 ft 398 kts 333°
2026-05-06 19:40 47.73500 74.38792 38118 ft 399 kts 333°
2026-05-06 19:41 47.78567 74.35378 38115 ft 399 kts 333°
2026-05-06 19:41 47.83602 74.31977 38116 ft 399 kts 332°
2026-05-06 19:42 47.88638 74.28573 38120 ft 399 kts 332°
2026-05-06 19:42 47.93692 74.25147 38121 ft 400 kts 332°
2026-05-06 19:43 47.98751 74.21708 38126 ft 399 kts 332°
2026-05-06 19:43 48.03817 74.18262 38131 ft 400 kts 332°
2026-05-06 19:44 48.08872 74.14809 38135 ft 400 kts 332°
2026-05-06 19:44 48.13923 74.11349 38140 ft 401 kts 332°
2026-05-06 19:45 48.19035 74.07840 38139 ft 402 kts 332°
2026-05-06 19:45 48.24101 74.04356 38128 ft 403 kts 332°
2026-05-06 19:46 48.29203 74.00840 38128 ft 403 kts 332°
2026-05-06 19:46 48.34294 73.97327 38139 ft 403 kts 332°
2026-05-06 19:47 48.39379 73.93810 38145 ft 403 kts 332°
2026-05-06 19:47 48.44474 73.90279 38148 ft 403 kts 332°
2026-05-06 19:48 48.49544 73.86757 38153 ft 405 kts 332°
2026-05-06 19:48 48.54636 73.83213 38156 ft 405 kts 332°
2026-05-06 19:49 48.59728 73.79660 38154 ft 405 kts 331°
2026-05-06 19:49 48.64858 73.76071 38148 ft 405 kts 331°
2026-05-06 19:50 48.69953 73.72503 38138 ft 405 kts 331°
2026-05-06 19:50 48.75029 73.68935 38135 ft 405 kts 331°
2026-05-06 19:51 48.80161 73.65322 38135 ft 405 kts 331°
2026-05-06 19:51 48.85228 73.61752 38127 ft 405 kts 331°
2026-05-06 19:52 48.90344 73.58135 38126 ft 406 kts 331°
2026-05-06 19:52 48.95457 73.54503 38123 ft 406 kts 331°
2026-05-06 19:53 49.00557 73.50876 38128 ft 406 kts 331°
2026-05-06 19:53 49.05670 73.47234 38110 ft 406 kts 331°
2026-05-06 19:54 49.10748 73.43609 38115 ft 406 kts 331°
2026-05-06 19:54 49.15901 73.39922 38107 ft 406 kts 331°
2026-05-06 19:55 49.20999 73.36266 38101 ft 407 kts 331°
2026-05-06 19:55 49.26121 73.32584 38104 ft 406 kts 330°
2026-05-06 19:56 49.31167 73.28952 38112 ft 406 kts 330°
2026-05-06 19:56 49.36262 73.25275 38100 ft 407 kts 330°
2026-05-06 19:57 49.41378 73.21573 38106 ft 407 kts 330°
2026-05-06 19:57 49.46470 73.17881 38104 ft 407 kts 330°
2026-05-06 19:58 49.51599 73.14156 38098 ft 407 kts 330°
2026-05-06 19:58 49.56598 73.10515 38079 ft 407 kts 330°
2026-05-06 19:59 49.61686 73.06798 38090 ft 407 kts 330°
2026-05-06 19:59 49.66823 73.03035 38081 ft 407 kts 330°
2026-05-06 20:00 49.71914 72.99301 38090 ft 406 kts 329°
2026-05-06 20:00 49.76960 72.95595 37304 ft 400 kts 329°
2026-05-06 20:01 49.79473 72.93750 35838 ft 407 kts 329°
2026-05-06 20:01 49.82049 72.91849 34377 ft 417 kts 328°
2026-05-06 20:01 49.84634 72.89934 32742 ft 422 kts 329°
2026-05-06 20:01 49.87268 72.87974 31465 ft 416 kts 330°
2026-05-06 20:02 49.89817 72.86091 31041 ft 405 kts 330°
2026-05-06 20:02 49.92364 72.84209 30555 ft 401 kts 330°
2026-05-06 20:02 49.94854 72.82366 30026 ft 398 kts 330°
2026-05-06 20:02 49.97324 72.80536 29513 ft 395 kts 330°
2026-05-06 20:03 49.99807 72.78695 29012 ft 392 kts 330°
2026-05-06 20:03 50.02251 72.76880 28497 ft 390 kts 330°
2026-05-06 20:03 50.04665 72.75085 27988 ft 388 kts 330°
2026-05-06 20:03 50.07084 72.73283 27492 ft 385 kts 330°
2026-05-06 20:04 50.09504 72.71476 26992 ft 383 kts 330°
2026-05-06 20:04 50.11901 72.69685 26504 ft 381 kts 330°
2026-05-06 20:04 50.14275 72.67910 26004 ft 379 kts 330°
2026-05-06 20:04 50.16494 72.66200 25522 ft 376 kts 327°
2026-05-06 20:05 50.18659 72.63821 25043 ft 368 kts 315°
2026-05-06 20:05 50.20446 72.60926 24571 ft 361 kts 306°
2026-05-06 20:05 50.21873 72.57944 24095 ft 359 kts 303°
2026-05-06 20:05 50.23346 72.54734 23609 ft 356 kts 303°
2026-05-06 20:06 50.24767 72.51622 23146 ft 354 kts 303°
2026-05-06 20:06 50.26205 72.48478 22681 ft 352 kts 303°
2026-05-06 20:06 50.27615 72.45402 22217 ft 351 kts 303°
2026-05-06 20:06 50.29039 72.42293 21731 ft 350 kts 303°
2026-05-06 20:07 50.30439 72.39236 21242 ft 349 kts 303°
2026-05-06 20:07 50.31849 72.36158 20754 ft 348 kts 302°
2026-05-06 20:07 50.33248 72.33096 20273 ft 347 kts 302°
2026-05-06 20:07 50.34642 72.30045 19792 ft 346 kts 302°
2026-05-06 20:08 50.35987 72.27099 19322 ft 345 kts 302°
2026-05-06 20:08 50.37395 72.24014 18838 ft 343 kts 302°
2026-05-06 20:08 50.38781 72.20972 18356 ft 342 kts 302°
2026-05-06 20:08 50.40164 72.17933 17863 ft 342 kts 302°
2026-05-06 20:09 50.41532 72.14924 17413 ft 340 kts 302°
2026-05-06 20:09 50.42881 72.11952 16949 ft 338 kts 302°
2026-05-06 20:09 50.44243 72.08949 16491 ft 337 kts 302°
2026-05-06 20:09 50.45605 72.05945 16049 ft 334 kts 302°
2026-05-06 20:10 50.46936 72.03005 15617 ft 332 kts 302°
2026-05-06 20:10 50.48264 72.00066 15188 ft 330 kts 302°
2026-05-06 20:10 50.49579 71.97156 14758 ft 327 kts 302°
2026-05-06 20:10 50.50887 71.94255 14312 ft 326 kts 302°
2026-05-06 20:11 50.52188 71.91369 13886 ft 324 kts 302°
2026-05-06 20:11 50.53479 71.88502 13466 ft 321 kts 302°
2026-05-06 20:11 50.54749 71.85674 13027 ft 320 kts 302°
2026-05-06 20:11 50.56045 71.82793 12584 ft 318 kts 302°
2026-05-06 20:12 50.57304 71.79987 12150 ft 317 kts 302°
2026-05-06 20:12 50.58572 71.77164 11712 ft 316 kts 302°
2026-05-06 20:12 50.59827 71.74359 11281 ft 314 kts 301°
2026-05-06 20:12 50.61070 71.71579 10849 ft 313 kts 301°
2026-05-06 20:13 50.62326 71.68767 10415 ft 311 kts 301°
2026-05-06 20:13 50.63545 71.66035 10087 ft 306 kts 301°
2026-05-06 20:13 50.64751 71.63339 9997 ft 291 kts 301°
2026-05-06 20:13 50.65894 71.60772 9653 ft 288 kts 301°
2026-05-06 20:14 50.67040 71.58195 9264 ft 286 kts 301°
2026-05-06 20:14 50.68173 71.55637 8903 ft 284 kts 301°
2026-05-06 20:14 50.69304 71.53091 8548 ft 281 kts 302°
2026-05-06 20:14 50.70416 71.50581 8182 ft 279 kts 302°
2026-05-06 20:15 50.71511 71.48109 7830 ft 278 kts 302°
2026-05-06 20:15 50.72619 71.45606 7466 ft 276 kts 302°
2026-05-06 20:15 50.73709 71.43146 7115 ft 275 kts 302°
2026-05-06 20:15 50.74805 71.40666 6749 ft 274 kts 302°
2026-05-06 20:16 50.75873 71.38248 6403 ft 272 kts 302°
2026-05-06 20:16 50.76955 71.35795 6049 ft 271 kts 302°
2026-05-06 20:16 50.78023 71.33372 5710 ft 269 kts 302°
2026-05-06 20:16 50.79083 71.30962 5380 ft 267 kts 302°
2026-05-06 20:17 50.80134 71.28571 5059 ft 265 kts 302°
2026-05-06 20:17 50.81179 71.26193 4744 ft 264 kts 302°
2026-05-06 20:17 50.82222 71.23817 4461 ft 261 kts 302°
2026-05-06 20:17 50.83372 71.21656 4385 ft 250 kts 323°
2026-05-06 20:18 50.84952 71.20827 4324 ft 239 kts
2026-05-06 20:18 50.86456 71.21640 4276 ft 227 kts 38°
2026-05-06 20:18 50.87564 71.23337 4249 ft 218 kts 48°
2026-05-06 20:18 50.88571 71.25041 4229 ft 206 kts 47°
2026-05-06 20:19 50.89557 71.26675 4174 ft 206 kts 47°
2026-05-06 20:19 50.90564 71.28297 4003 ft 205 kts 46°
2026-05-06 20:19 50.91577 71.29898 3741 ft 205 kts 45°
2026-05-06 20:19 50.92551 71.31423 3557 ft 189 kts 45°
2026-05-06 20:20 50.93461 71.32845 3280 ft 180 kts 46°
2026-05-06 20:20 50.94316 71.34182 3049 ft 169 kts 45°
2026-05-06 20:20 50.95141 71.35474 2801 ft 160 kts 45°
2026-05-06 20:20 50.95899 71.36661 2584 ft 147 kts 46°
2026-05-06 20:21 50.96595 71.37750 2380 ft 135 kts 46°
2026-05-06 20:21 50.97256 71.38786 2228 ft 134 kts 46°
2026-05-06 20:21 50.97917 71.39823 2069 ft 133 kts 45°
2026-05-06 20:21 50.98578 71.40830 1888 ft 132 kts 45°
2026-05-06 20:22 50.99234 71.41849 1718 ft 131 kts 46°
2026-05-06 20:22 50.99870 71.42877 1555 ft 130 kts 46°
2026-05-06 20:22 51.00498 71.43887 1371 ft 129 kts 45°
2026-05-06 20:22 51.01143 71.44875 1208 ft 127 kts 46°
2026-05-06 20:23 51.01732 71.45792 1174 ft 100 kts 46°
2026-05-06 20:23 51.02105 71.46384 1174 ft 51 kts 40°
2026-05-06 20:23 51.02319 71.46719 1174 ft 39 kts 44°
2026-05-06 20:23 51.02462 71.46934 1174 ft 17 kts 31°
2026-05-06 20:24 51.02552 71.46873 1174 ft 16 kts 314°
2026-05-06 20:24 51.02633 71.46745 1174 ft 13 kts 315°
2026-05-06 20:24 51.02694 71.46640 1174 ft 10 kts 311°
2026-05-06 20:24 51.02690 71.46538 1174 ft 10 kts 223°
2026-05-06 20:25 51.02636 71.46446 1174 ft 12 kts 246°
2026-05-06 20:25 51.02618 71.46310 1174 ft 12 kts 252°
2026-05-06 20:25 51.02557 71.46199 1174 ft 14 kts 224°
2026-05-06 20:25 51.02491 71.46101 1174 ft 12 kts 210°
2026-05-06 20:26 51.02420 71.46114 1174 ft 8 kts 184°
2026-05-06 20:26 51.02367 71.46047 1174 ft 10 kts 224°
2026-05-06 20:26 51.02313 71.45962 1174 ft 9 kts 225°
2026-05-06 20:26 51.02318 71.45872 1174 ft 10 kts 313°
2026-05-06 20:27 51.02360 71.45803 1174 ft 5 kts 313°
2026-05-06 20:27 51.02363 71.45798 1174 ft 0 kts 313°
2026-05-06 20:29 51.02357 71.45808 1174 ft 2 kts 313°
2026-05-06 20:29 51.02348 71.45823 1174 ft 2 kts 290°
2026-05-06 20:30 51.02347 71.45847 1174 ft 2 kts 255°
2026-05-06 20:30 51.02363 71.45878 1174 ft 1 kts 219°
2026-05-06 20:30 51.02367 71.45883 1174 ft 0 kts 224°